User: anonymous   Login
Location: Unspecified
(0.0000°N, 0.0000°E)
Time: 12:19:23
(UTC+02:00)
Language:

Cosmos 1733 Rocket - Orbit

View from above orbital plane
View from above orbital plane
View from above satellite
View from above satellite

Ground track
Ground track

The orbit data is extracted from the following two-line orbital elements,

1 16612U 86018B   15142.45973874  .00000407  00000-0  45992-4 0  9993
2 16612 082.5160 286.3017 0018994 127.5714 290.3433 14.83920920479221
Epoch (UTC): 22 May 2015 11:02:01
Eccentricity: 0.0018994
inclination: 82.5160°
perigee height: 603 km
apogee height: 630 km
right ascension of ascending node: 286.3017°
argument of perigee: 127.5714°
revolutions per day: 14.83920920
mean anomaly at epoch: 290.3433°
orbit number at epoch: 47922

The dashed part of the orbit path shows where the satellite is in the earth's shadow,  

DLR